Location: Clatteringshaws Loch
(55.0508°N, 4.2860°W)
Time: 21:00:33
(UTC+01:00)

ALOS - Visible Passes

Search period start: 06 July 2015 00:00
Search period end: 16 July 2015 00:00
Orbit: 685 x 688 km, 97.9° (Epoch: 06 July)

Date Brightness Start Highest point End Pass type
(mag) Time Alt. Az. Time Alt. Az. Time Alt. Az.
08 Jul 4.9 22:59:19 10° WSW 23:01:59 15° W 23:04:29 10° NW visible
11 Jul 5.2 23:17:45 10° W 23:18:45 10° W 23:19:31 10° WNW visible
13 Jul 4.8 22:53:55 10° WSW 22:56:51 16° W 22:59:38 10° NW visible
